Regional Weather Roundup
Issued by NWS Sioux Falls, SD

Home | Current Version | Previous Version | Text Only | Print | Product List | Glossary Off
Versions: 1 2 3 4 5 6 7 8 9 10 11 12 13 14 15 16 17 18 19 20 21 22 23 24 25 26 27 28 29 30 31 32 33 34 35 36 37 38 39 40 41 42 43 44 45 46 47 48 49 50

000
ASUS43 KFSD 202302
RWRFSD

WEATHER ROUNDUP FOR SE SOUTH DAKOTA/SW MINNESOTA/NW IOWA
NATIONAL WEATHER SERVICE SIOUX FALLS SD
500 PM CST FRI JAN 20 2017

NOTE: "FAIR" INDICATES FEW OR NO CLOUDS BELOW 12,000 FEET WITH NO
SIGNIFICANT WEATHER AND OR OBSTRUCTIONS TO VISIBILITY.


SDZ038>040-050-052>070-210000-
SOUTHEAST SOUTH DAKOTA

CITY           SKY/WX    TMP DP  RH WIND       PRES   REMARKS
BROOKINGS      FOG       37  36  96 S10       29.40F VSB 3/4
CHAMBERLAIN    CLEAR     38  32  77 NW5       29.33S
HURON          CLEAR     43  34  70 S5        29.35R
MADISON        CLOUDY    37  37 100 S13G21      N/A
MITCHELL       MOCLDY    46  39  76 S18       29.36R
SIOUX FALLS    FOG       40  40 100 SE10      29.43S VSB 3/4
WINNER         FAIR      36  28  73 W6        29.33R
YANKTON        CLOUDY    41  37  87 SE10      29.41R
$$

MNZ071-072-080-081-089-090-097-098-210000-
SOUTHWEST MINNESOTA

CITY           SKY/WX    TMP DP  RH WIND       PRES   REMARKS
FAIRMONT       FOG       35  35 100 E7        29.50S VSB 1/4 WCI  29
JACKSON        FOG       34  34 100 SE5       29.48F VSB 1/4 WCI  30
LUVERNE        FOG       37  36  93 SE9       29.45S VSB 1/4
MARSHALL       CLOUDY    38  37  97 SE10      29.46F
MONTEVIDEO     CLOUDY    34  34 100 SE9       29.49S FOG     WCI  26
PIPESTONE      SNOW      37  37 100 S10       29.42S VSB<1/4
REDWOOD FALLS  CLOUDY    36  34  92 SE10      29.50S
TRACY          FOG       38  38  98 SE6       29.47S VSB 1/2
WINDOM         FOG       36  36 100 SE6       29.48S VSB 1
WORTHINGTON    CLOUDY    37  37 100 MISG      29.47S FOG
$$

IAZ001>003-012>014-020>022-031-032-NEZ013-014-SDZ071-210000-
NORTHWEST IOWA

CITY           SKY/WX    TMP DP  RH WIND       PRES   REMARKS
CHEROKEE       CLOUDY    38  38 100 SE5       29.47R FOG
DENISON        CLOUDY    39  39 100 E9        29.45S
ESTHERVILLE    FOG       34  34 100 SE7       29.48F VSB 1/4 WCI  28
LE MARS        CLOUDY    41  41 100 SE8       29.46S
ORANGE CITY    CLOUDY    37  37 100 SE6       29.45S FOG
SHELDON        CLOUDY    37  37 100 SE9       29.44S FOG
SIOUX CITY     FOG       43  41  93 SE10      29.45S VSB 1
SPENCER        CLOUDY    37  37 100 SE8       29.47F FOG
STORM LAKE     MIX PCPN  37  37 100 SE8       29.48R VSB<1/4
$$

ABBREVIATIONS USED IN REMARKS
   TC - TEMPERATURE IN CELSIUS
  WCI - WIND CHILL INDEX
   HX - HEAT INDEX
  VSB - VISIBILITY




USA.gov is the U.S. government's official web portal to all federal, state and local government web resources and services.